Year,Month,Day,Hour,Minute,Value (Times are PST for temperature in C)
2014,10,12,00,00,10.10
2014,10,12,00,01,10.10
2014,10,12,00,02,10.10
2014,10,12,00,03,10.10
2014,10,12,00,04,10.10
2014,10,12,00,05,10.00
2014,10,12,00,06,10.00
2014,10,12,00,07,10.00
2014,10,12,00,08,10.00
2014,10,12,00,09,9.90
2014,10,12,00,10,9.90
2014,10,12,00,11,9.90
2014,10,12,00,12,9.90
2014,10,12,00,13,9.90
2014,10,12,00,14,9.90
2014,10,12,00,15,9.90
2014,10,12,00,16,9.90
2014,10,12,00,17,9.90
2014,10,12,00,18,9.90
2014,10,12,00,19,9.90
2014,10,12,00,20,9.80
2014,10,12,00,21,9.80
2014,10,12,00,22,9.80
2014,10,12,00,23,9.80
2014,10,12,00,24,9.80
2014,10,12,00,25,9.90
2014,10,12,00,26,9.90
2014,10,12,00,27,9.90
2014,10,12,00,28,9.90
2014,10,12,00,29,9.90
2014,10,12,00,30,9.90
2014,10,12,00,31,9.90
2014,10,12,00,32,9.80
2014,10,12,00,33,9.80
2014,10,12,00,34,9.80
2014,10,12,00,35,9.80
2014,10,12,00,36,9.80
2014,10,12,00,37,9.70
2014,10,12,00,38,9.70
2014,10,12,00,39,9.70
2014,10,12,00,40,9.70
2014,10,12,00,41,9.70
2014,10,12,00,42,9.90
2014,10,12,00,43,10.00
2014,10,12,00,44,10.20
2014,10,12,00,45,10.40
2014,10,12,00,46,10.60
2014,10,12,00,47,10.60
2014,10,12,00,48,10.60
2014,10,12,00,49,10.50
2014,10,12,00,50,10.40
2014,10,12,00,51,10.40
2014,10,12,00,52,10.40
2014,10,12,00,53,10.70
2014,10,12,00,54,10.90
2014,10,12,00,55,10.90
2014,10,12,00,56,10.90
2014,10,12,00,57,10.80
2014,10,12,00,58,10.80
2014,10,12,00,59,10.80
2014,10,12,01,00,10.80
2014,10,12,01,01,10.80
2014,10,12,01,02,10.80
2014,10,12,01,03,10.80
2014,10,12,01,04,10.70
2014,10,12,01,05,10.70
2014,10,12,01,06,10.60
2014,10,12,01,07,10.60
2014,10,12,01,08,10.60
2014,10,12,01,09,10.60
2014,10,12,01,10,10.60
2014,10,12,01,11,10.50
2014,10,12,01,12,10.50
2014,10,12,01,13,10.40
2014,10,12,01,14,10.30
2014,10,12,01,15,10.30
2014,10,12,01,16,10.20
2014,10,12,01,17,10.20
2014,10,12,01,18,10.10
2014,10,12,01,19,10.10
2014,10,12,01,20,10.10
2014,10,12,01,21,10.00
2014,10,12,01,22,10.00
2014,10,12,01,23,10.00
2014,10,12,01,24,9.90
2014,10,12,01,25,9.90
2014,10,12,01,26,9.90
2014,10,12,01,27,9.80
2014,10,12,01,28,9.80
2014,10,12,01,29,9.80
2014,10,12,01,30,9.80
2014,10,12,01,31,9.80
2014,10,12,01,32,9.70
2014,10,12,01,33,9.70
2014,10,12,01,34,9.70
2014,10,12,01,35,9.70
2014,10,12,01,36,9.70
2014,10,12,01,37,9.70
2014,10,12,01,38,9.60
2014,10,12,01,39,9.60
2014,10,12,01,40,9.60
2014,10,12,01,41,9.60
2014,10,12,01,42,9.60
2014,10,12,01,43,9.50
2014,10,12,01,44,9.50
2014,10,12,01,45,9.40
2014,10,12,01,46,9.40
2014,10,12,01,47,9.40
2014,10,12,01,48,9.40
2014,10,12,01,49,9.40
2014,10,12,01,50,9.40
2014,10,12,01,51,9.30
2014,10,12,01,52,9.30
2014,10,12,01,53,9.30
2014,10,12,01,54,9.30
2014,10,12,01,55,9.30
2014,10,12,01,56,9.30
2014,10,12,01,57,9.30
2014,10,12,01,58,9.30
2014,10,12,01,59,9.30
2014,10,12,02,00,9.30
2014,10,12,02,01,9.20
2014,10,12,02,02,9.20
2014,10,12,02,03,9.20
2014,10,12,02,04,9.20
2014,10,12,02,05,9.20
2014,10,12,02,06,9.20
2014,10,12,02,07,9.10
2014,10,12,02,08,9.10
2014,10,12,02,09,9.20
2014,10,12,02,10,9.20
2014,10,12,02,11,9.20
2014,10,12,02,12,9.20
2014,10,12,02,13,9.20
2014,10,12,02,14,9.10
2014,10,12,02,15,9.10
2014,10,12,02,16,9.10
2014,10,12,02,17,9.10
2014,10,12,02,18,9.10
2014,10,12,02,19,9.10
2014,10,12,02,20,9.10
2014,10,12,02,21,9.00
2014,10,12,02,22,9.00
2014,10,12,02,23,9.00
2014,10,12,02,24,8.90
2014,10,12,02,25,8.90
2014,10,12,02,26,8.90
2014,10,12,02,27,8.90
2014,10,12,02,28,8.90
2014,10,12,02,29,8.90
2014,10,12,02,30,8.80
2014,10,12,02,31,8.80
2014,10,12,02,32,8.80
2014,10,12,02,33,8.80
2014,10,12,02,34,8.90
2014,10,12,02,35,8.90
2014,10,12,02,36,8.90
2014,10,12,02,37,8.90
2014,10,12,02,38,8.90
2014,10,12,02,39,8.90
2014,10,12,02,40,8.90
2014,10,12,02,41,8.90
2014,10,12,02,42,8.90
2014,10,12,02,43,8.90
2014,10,12,02,44,8.90
2014,10,12,02,45,8.90
2014,10,12,02,46,8.80
2014,10,12,02,47,8.90
2014,10,12,02,48,8.80
2014,10,12,02,49,8.90
2014,10,12,02,50,9.00
2014,10,12,02,51,9.10
2014,10,12,02,52,9.10
2014,10,12,02,53,9.10
2014,10,12,02,54,9.10
2014,10,12,02,55,9.10
2014,10,12,02,56,9.10
2014,10,12,02,57,9.10
2014,10,12,02,58,9.10
2014,10,12,02,59,9.10
2014,10,12,03,00,9.10
2014,10,12,03,01,9.10
2014,10,12,03,02,9.10
2014,10,12,03,03,9.10
2014,10,12,03,04,9.10
2014,10,12,03,05,9.10
2014,10,12,03,06,9.10
2014,10,12,03,07,9.20
2014,10,12,03,08,9.20
2014,10,12,03,09,9.20
2014,10,12,03,10,9.20
2014,10,12,03,11,9.20
2014,10,12,03,12,9.20
2014,10,12,03,13,9.20
2014,10,12,03,14,9.20
2014,10,12,03,15,9.20
2014,10,12,03,16,9.20
2014,10,12,03,17,9.20
2014,10,12,03,18,9.20
2014,10,12,03,19,9.20
2014,10,12,03,20,9.20
2014,10,12,03,21,9.20
2014,10,12,03,22,9.20
2014,10,12,03,23,9.20
2014,10,12,03,24,9.20
2014,10,12,03,25,9.30
2014,10,12,03,26,9.30
2014,10,12,03,27,9.30
2014,10,12,03,28,9.30
2014,10,12,03,29,9.30
2014,10,12,03,30,9.30
2014,10,12,03,31,9.30
2014,10,12,03,32,9.40
2014,10,12,03,33,9.40
2014,10,12,03,34,9.40
2014,10,12,03,35,9.50
2014,10,12,03,36,9.40
2014,10,12,03,37,9.40
2014,10,12,03,38,9.40
2014,10,12,03,39,9.40
2014,10,12,03,40,9.40
2014,10,12,03,41,9.40
2014,10,12,03,42,9.40
2014,10,12,03,43,9.40
2014,10,12,03,44,9.50
2014,10,12,03,45,9.50
2014,10,12,03,46,9.60
2014,10,12,03,47,9.60
2014,10,12,03,48,9.60
2014,10,12,03,49,9.60
2014,10,12,03,50,9.60
2014,10,12,03,51,9.60
2014,10,12,03,52,9.70
2014,10,12,03,53,9.70
2014,10,12,03,54,9.70
2014,10,12,03,55,9.70
2014,10,12,03,56,9.70
2014,10,12,03,57,9.70
2014,10,12,03,58,9.70
2014,10,12,03,59,9.80
2014,10,12,04,00,9.80
2014,10,12,04,01,9.80
2014,10,12,04,02,9.80
2014,10,12,04,03,9.90
2014,10,12,04,04,9.90
2014,10,12,04,05,9.90
2014,10,12,04,06,10.00
2014,10,12,04,07,10.10
2014,10,12,04,08,10.20
2014,10,12,04,09,10.20
2014,10,12,04,10,10.20
2014,10,12,04,11,10.20
2014,10,12,04,12,10.30
2014,10,12,04,13,10.30
2014,10,12,04,14,10.40
2014,10,12,04,15,10.40
2014,10,12,04,16,10.50
2014,10,12,04,17,10.60
2014,10,12,04,18,10.60
2014,10,12,04,19,10.60
2014,10,12,04,20,10.70
2014,10,12,04,21,10.70
2014,10,12,04,22,10.70
2014,10,12,04,23,10.70
2014,10,12,04,24,10.80
2014,10,12,04,25,10.80
2014,10,12,04,26,10.80
2014,10,12,04,27,10.80
2014,10,12,04,28,10.80
2014,10,12,04,29,10.80
2014,10,12,04,30,10.80
2014,10,12,04,31,10.80
2014,10,12,04,32,10.80
2014,10,12,04,33,10.80
2014,10,12,04,34,10.80
2014,10,12,04,35,10.80
2014,10,12,04,36,10.80
2014,10,12,04,37,10.80
2014,10,12,04,38,10.80
2014,10,12,04,39,10.90
2014,10,12,04,40,10.90
2014,10,12,04,41,10.90
2014,10,12,04,42,10.80
2014,10,12,04,43,10.80
2014,10,12,04,44,10.80
2014,10,12,04,45,10.80
2014,10,12,04,46,10.80
2014,10,12,04,47,10.80
2014,10,12,04,48,10.80
2014,10,12,04,49,10.80
2014,10,12,04,50,10.70
2014,10,12,04,51,10.70
2014,10,12,04,52,10.70
2014,10,12,04,53,10.70
2014,10,12,04,54,10.70
2014,10,12,04,55,10.70
2014,10,12,04,56,10.70
2014,10,12,04,57,10.70
2014,10,12,04,58,10.70
2014,10,12,04,59,10.60
2014,10,12,05,00,10.60
2014,10,12,05,01,10.60
2014,10,12,05,02,10.60
2014,10,12,05,03,10.60
2014,10,12,05,04,10.60
2014,10,12,05,05,10.60
2014,10,12,05,06,10.70
2014,10,12,05,07,10.70
2014,10,12,05,08,10.70
2014,10,12,05,09,10.70
2014,10,12,05,10,10.70
2014,10,12,05,11,10.70
2014,10,12,05,12,10.70
2014,10,12,05,13,10.70
2014,10,12,05,14,10.70
2014,10,12,05,15,10.70
2014,10,12,05,16,10.70
2014,10,12,05,17,10.70
2014,10,12,05,18,10.80
2014,10,12,05,19,10.80
2014,10,12,05,20,10.80
2014,10,12,05,21,10.80
2014,10,12,05,22,10.80
2014,10,12,05,23,10.90
2014,10,12,05,24,10.90
2014,10,12,05,25,10.90
2014,10,12,05,26,10.90
2014,10,12,05,27,11.00
2014,10,12,05,28,11.00
2014,10,12,05,29,11.00
2014,10,12,05,30,11.10
2014,10,12,05,31,11.10
2014,10,12,05,32,11.10
2014,10,12,05,33,11.10
2014,10,12,05,34,11.10
2014,10,12,05,35,11.10
2014,10,12,05,36,11.10
2014,10,12,05,37,11.10
2014,10,12,05,38,11.10
2014,10,12,05,39,11.10
2014,10,12,05,40,11.10
2014,10,12,05,41,11.10
2014,10,12,05,42,11.10
2014,10,12,05,43,11.10
2014,10,12,05,44,11.10
2014,10,12,05,45,11.10
2014,10,12,05,46,11.10
2014,10,12,05,47,11.10
2014,10,12,05,48,11.10
2014,10,12,05,49,11.10
2014,10,12,05,50,11.10
2014,10,12,05,51,11.10
2014,10,12,05,52,11.20
2014,10,12,05,53,11.20
2014,10,12,05,54,11.20
2014,10,12,05,55,11.20
2014,10,12,05,56,11.20
2014,10,12,05,57,11.20
2014,10,12,05,58,11.20
2014,10,12,05,59,11.10
2014,10,12,06,00,11.10
2014,10,12,06,01,11.10
2014,10,12,06,02,11.10
2014,10,12,06,03,11.10
2014,10,12,06,04,11.10
2014,10,12,06,05,11.00
2014,10,12,06,06,11.00
2014,10,12,06,07,10.90
2014,10,12,06,08,10.90
2014,10,12,06,09,10.90
2014,10,12,06,10,10.80
2014,10,12,06,11,10.80
2014,10,12,06,12,10.70
2014,10,12,06,13,10.70
2014,10,12,06,14,10.70
2014,10,12,06,15,10.60
2014,10,12,06,16,10.60
2014,10,12,06,17,10.60
2014,10,12,06,18,10.60
2014,10,12,06,19,10.60
2014,10,12,06,20,10.50
2014,10,12,06,21,10.50
2014,10,12,06,22,10.50
2014,10,12,06,23,10.50
2014,10,12,06,24,10.40
2014,10,12,06,25,10.40
2014,10,12,06,26,10.40
2014,10,12,06,27,10.40
2014,10,12,06,28,10.40
2014,10,12,06,29,10.40
2014,10,12,06,30,10.40
2014,10,12,06,31,10.40
2014,10,12,06,32,10.40
2014,10,12,06,33,10.50
2014,10,12,06,34,10.50
2014,10,12,06,35,10.50
2014,10,12,06,36,10.60
2014,10,12,06,37,10.60
2014,10,12,06,38,10.60
2014,10,12,06,39,10.50
2014,10,12,06,40,10.50
2014,10,12,06,41,10.50
2014,10,12,06,42,10.40
2014,10,12,06,43,10.40
2014,10,12,06,44,10.40
2014,10,12,06,45,10.40
2014,10,12,06,46,10.40
2014,10,12,06,47,10.40
2014,10,12,06,48,10.40
2014,10,12,06,49,10.40
2014,10,12,06,50,10.40
2014,10,12,06,51,10.40
2014,10,12,06,52,10.40
2014,10,12,06,53,10.40
2014,10,12,06,54,10.40
2014,10,12,06,55,10.40
2014,10,12,06,56,10.30
2014,10,12,06,57,10.30
2014,10,12,06,58,10.30
2014,10,12,06,59,10.30
2014,10,12,07,00,10.20
2014,10,12,07,01,10.20
2014,10,12,07,02,10.20
2014,10,12,07,03,10.20
2014,10,12,07,04,10.20
2014,10,12,07,05,10.20
2014,10,12,07,06,10.10
2014,10,12,07,07,10.10
2014,10,12,07,08,10.10
2014,10,12,07,09,10.10
2014,10,12,07,10,10.00
2014,10,12,07,11,10.00
2014,10,12,07,12,10.00
2014,10,12,07,13,10.00
2014,10,12,07,14,10.00
2014,10,12,07,15,9.90
2014,10,12,07,16,9.90
2014,10,12,07,17,9.90
2014,10,12,07,18,9.90
2014,10,12,07,19,9.90
2014,10,12,07,20,9.90
2014,10,12,07,21,9.90
2014,10,12,07,22,9.90
2014,10,12,07,23,9.90
2014,10,12,07,24,9.90
2014,10,12,07,25,9.90
2014,10,12,07,26,9.90
2014,10,12,07,27,9.90
2014,10,12,07,28,9.80
2014,10,12,07,29,9.80
2014,10,12,07,30,9.80
2014,10,12,07,31,9.80
2014,10,12,07,32,9.80
2014,10,12,07,33,9.80
2014,10,12,07,34,9.80
2014,10,12,07,35,9.80
2014,10,12,07,36,9.80
2014,10,12,07,37,9.80
2014,10,12,07,38,9.80
2014,10,12,07,39,9.80
2014,10,12,07,40,9.80
2014,10,12,07,41,9.80
2014,10,12,07,42,9.80
2014,10,12,07,43,9.70
2014,10,12,07,44,9.70
2014,10,12,07,45,9.70
2014,10,12,07,46,9.70
2014,10,12,07,47,9.70
2014,10,12,07,48,9.70
2014,10,12,07,49,9.70
2014,10,12,07,50,9.70
2014,10,12,07,51,9.70
2014,10,12,07,52,9.70
2014,10,12,07,53,9.70
2014,10,12,07,54,9.70
2014,10,12,07,55,9.70
2014,10,12,07,56,9.70
2014,10,12,07,57,9.70
2014,10,12,07,58,9.70
2014,10,12,07,59,9.70
2014,10,12,08,00,9.70
2014,10,12,08,01,9.70
2014,10,12,08,02,9.70
2014,10,12,08,03,9.70
2014,10,12,08,04,9.80
2014,10,12,08,05,9.80
2014,10,12,08,06,9.80
2014,10,12,08,07,9.80
2014,10,12,08,08,9.80
2014,10,12,08,09,9.80
2014,10,12,08,10,9.80
2014,10,12,08,11,9.80
2014,10,12,08,12,9.80
2014,10,12,08,13,9.80
2014,10,12,08,14,9.80
2014,10,12,08,15,9.80
2014,10,12,08,16,9.80
2014,10,12,08,17,9.80
2014,10,12,08,18,9.80
2014,10,12,08,19,9.80
2014,10,12,08,20,9.80
2014,10,12,08,21,9.80
2014,10,12,08,22,9.80
2014,10,12,08,23,9.80
2014,10,12,08,24,9.80
2014,10,12,08,25,9.80
2014,10,12,08,26,9.90
2014,10,12,08,27,9.90
2014,10,12,08,28,9.90
2014,10,12,08,29,9.90
2014,10,12,08,30,9.90
2014,10,12,08,31,9.90
2014,10,12,08,32,9.90
2014,10,12,08,33,9.90
2014,10,12,08,34,10.00
2014,10,12,08,35,10.00
2014,10,12,08,36,10.00
2014,10,12,08,37,10.00
2014,10,12,08,38,10.00
2014,10,12,08,39,10.00
2014,10,12,08,40,10.10
2014,10,12,08,41,10.10
2014,10,12,08,42,10.10
2014,10,12,08,43,10.10
2014,10,12,08,44,10.10
2014,10,12,08,45,10.20
2014,10,12,08,46,10.20
2014,10,12,08,47,10.20
2014,10,12,08,48,10.20
2014,10,12,08,49,10.20
2014,10,12,08,50,10.30
2014,10,12,08,51,10.30
2014,10,12,08,52,10.30
2014,10,12,08,53,10.30
2014,10,12,08,54,10.30
2014,10,12,08,55,10.30
2014,10,12,08,56,10.30
2014,10,12,08,57,10.30
2014,10,12,08,58,10.40
2014,10,12,08,59,10.40
2014,10,12,09,00,10.40
2014,10,12,09,01,10.40
2014,10,12,09,02,10.40
2014,10,12,09,03,10.50
2014,10,12,09,04,10.50
2014,10,12,09,05,10.50
2014,10,12,09,06,10.60
2014,10,12,09,07,10.60
2014,10,12,09,08,10.70
2014,10,12,09,09,10.70
2014,10,12,09,10,10.70
2014,10,12,09,11,10.70
2014,10,12,09,12,10.80
2014,10,12,09,13,10.80
2014,10,12,09,14,10.80
2014,10,12,09,15,10.80
2014,10,12,09,16,10.80
2014,10,12,09,17,10.90
2014,10,12,09,18,10.90
2014,10,12,09,19,10.90
2014,10,12,09,20,11.00
2014,10,12,09,21,11.00
2014,10,12,09,22,11.00
2014,10,12,09,23,11.10
2014,10,12,09,24,11.10
2014,10,12,09,25,11.10
2014,10,12,09,26,11.20
2014,10,12,09,27,11.20
2014,10,12,09,28,11.20
2014,10,12,09,29,11.20
2014,10,12,09,30,11.30
2014,10,12,09,31,11.30
2014,10,12,09,32,11.30
2014,10,12,09,33,11.30
2014,10,12,09,34,11.30
2014,10,12,09,35,11.40
2014,10,12,09,36,11.40
2014,10,12,09,37,11.40
2014,10,12,09,38,11.40
2014,10,12,09,39,11.50
2014,10,12,09,40,11.50
2014,10,12,09,41,11.60
2014,10,12,09,42,11.60
2014,10,12,09,43,11.60
2014,10,12,09,44,11.70
2014,10,12,09,45,11.70
2014,10,12,09,46,11.70
2014,10,12,09,47,11.80
2014,10,12,09,48,11.80
2014,10,12,09,49,11.90
2014,10,12,09,50,12.00
2014,10,12,09,51,12.00
2014,10,12,09,52,12.10
2014,10,12,09,53,12.10
2014,10,12,09,54,12.20
2014,10,12,09,55,12.20
2014,10,12,09,56,12.30
2014,10,12,09,57,12.30
2014,10,12,09,58,12.40
2014,10,12,09,59,12.40
2014,10,12,10,00,12.40
2014,10,12,10,01,12.50
2014,10,12,10,02,12.60
2014,10,12,10,03,12.60
2014,10,12,10,04,12.70
2014,10,12,10,05,12.80
2014,10,12,10,06,12.80
2014,10,12,10,07,12.80
2014,10,12,10,08,12.90
2014,10,12,10,09,13.00
2014,10,12,10,10,13.10
2014,10,12,10,11,13.20
2014,10,12,10,12,13.20
2014,10,12,10,13,13.30
2014,10,12,10,14,13.40
2014,10,12,10,15,13.50
2014,10,12,10,16,13.50
2014,10,12,10,17,13.60
2014,10,12,10,18,13.60
2014,10,12,10,19,13.70
2014,10,12,10,20,13.80
2014,10,12,10,21,13.80
2014,10,12,10,22,13.90
2014,10,12,10,23,13.90
2014,10,12,10,24,14.00
2014,10,12,10,25,14.00
2014,10,12,10,26,14.10
2014,10,12,10,27,14.20
2014,10,12,10,28,14.20
2014,10,12,10,29,14.20
2014,10,12,10,30,14.30
2014,10,12,10,31,14.30
2014,10,12,10,32,14.30
2014,10,12,10,33,14.30
2014,10,12,10,34,14.40
2014,10,12,10,35,14.40
2014,10,12,10,36,14.40
2014,10,12,10,37,14.40
2014,10,12,10,38,14.50
2014,10,12,10,39,14.50
2014,10,12,10,40,14.50
2014,10,12,10,41,14.60
2014,10,12,10,42,14.60
2014,10,12,10,43,14.60
2014,10,12,10,44,14.70
2014,10,12,10,45,14.70
2014,10,12,10,46,14.70
2014,10,12,10,47,14.70
2014,10,12,10,48,14.70
2014,10,12,10,49,14.70
2014,10,12,10,50,14.70
2014,10,12,10,51,14.60
2014,10,12,10,52,14.70
2014,10,12,10,53,14.70
2014,10,12,10,54,14.60
2014,10,12,10,55,14.60
2014,10,12,10,56,14.70
2014,10,12,10,57,14.70
2014,10,12,10,58,14.70
2014,10,12,10,59,14.70
2014,10,12,11,00,14.70
2014,10,12,11,01,14.70
2014,10,12,11,02,14.70
2014,10,12,11,03,14.70
2014,10,12,11,04,14.70
2014,10,12,11,05,14.70
2014,10,12,11,06,14.70
2014,10,12,11,07,14.70
2014,10,12,11,08,14.70
2014,10,12,11,09,14.70
2014,10,12,11,10,14.70
2014,10,12,11,11,14.70
2014,10,12,11,12,14.70
2014,10,12,11,13,14.80
2014,10,12,11,14,14.80
2014,10,12,11,15,14.80
2014,10,12,11,16,14.80
2014,10,12,11,17,14.80
2014,10,12,11,18,14.90
2014,10,12,11,19,14.90
2014,10,12,11,20,15.00
2014,10,12,11,21,15.00
2014,10,12,11,22,15.00
2014,10,12,11,23,15.00
2014,10,12,11,24,15.00
2014,10,12,11,25,15.00
2014,10,12,11,26,15.00
2014,10,12,11,27,15.00
2014,10,12,11,28,15.00
2014,10,12,11,29,15.00
2014,10,12,11,30,15.10
2014,10,12,11,31,15.00
2014,10,12,11,32,15.00
2014,10,12,11,33,15.00
2014,10,12,11,34,15.00
2014,10,12,11,35,15.00
2014,10,12,11,36,15.00
2014,10,12,11,37,15.00
2014,10,12,11,38,15.10
2014,10,12,11,39,15.10
2014,10,12,11,40,15.10
2014,10,12,11,41,15.10
2014,10,12,11,42,15.10
2014,10,12,11,43,15.10
2014,10,12,11,44,15.10
2014,10,12,11,45,15.10
2014,10,12,11,46,15.10
2014,10,12,11,47,15.10
2014,10,12,11,48,15.10
2014,10,12,11,49,15.10
2014,10,12,11,50,15.10
2014,10,12,11,51,15.10
2014,10,12,11,52,15.20
2014,10,12,11,53,15.20
2014,10,12,11,54,15.10
2014,10,12,11,55,15.10
2014,10,12,11,56,15.20
2014,10,12,11,57,15.20
2014,10,12,11,58,15.20
2014,10,12,11,59,15.20
2014,10,12,12,00,15.10
2014,10,12,12,01,15.00
2014,10,12,12,02,15.00
2014,10,12,12,03,15.00
2014,10,12,12,04,15.00
2014,10,12,12,05,15.00
2014,10,12,12,06,15.00
2014,10,12,12,07,15.00
2014,10,12,12,08,15.00
2014,10,12,12,09,15.00
2014,10,12,12,10,15.00
2014,10,12,12,11,15.00
2014,10,12,12,12,15.00
2014,10,12,12,13,15.00
2014,10,12,12,14,15.00
2014,10,12,12,15,15.10
2014,10,12,12,16,15.10
2014,10,12,12,17,15.00
2014,10,12,12,18,15.00
2014,10,12,12,19,15.00
2014,10,12,12,20,15.00
2014,10,12,12,21,15.00
2014,10,12,12,22,14.90
2014,10,12,12,23,14.80
2014,10,12,12,24,14.80
2014,10,12,12,25,14.70
2014,10,12,12,26,14.70
2014,10,12,12,27,14.70
2014,10,12,12,28,14.70
2014,10,12,12,29,14.70
2014,10,12,12,30,14.70
2014,10,12,12,31,14.70
2014,10,12,12,32,14.70
2014,10,12,12,33,14.70
2014,10,12,12,34,14.70
2014,10,12,12,35,14.70
2014,10,12,12,36,14.70
2014,10,12,12,37,14.70
2014,10,12,12,38,14.70
2014,10,12,12,39,14.70
2014,10,12,12,40,14.70
2014,10,12,12,41,14.70
2014,10,12,12,42,14.70
2014,10,12,12,43,14.70
2014,10,12,12,44,14.60
2014,10,12,12,45,14.60
2014,10,12,12,46,14.50
2014,10,12,12,47,14.50
2014,10,12,12,48,14.40
2014,10,12,12,49,14.40
2014,10,12,12,50,14.40
2014,10,12,12,51,14.30
2014,10,12,12,52,14.30
2014,10,12,12,53,14.30
2014,10,12,12,54,14.20
2014,10,12,12,55,14.20
2014,10,12,12,56,14.20
2014,10,12,12,57,14.10
2014,10,12,12,58,14.10
2014,10,12,12,59,14.10
2014,10,12,13,00,14.00
2014,10,12,13,01,14.00
2014,10,12,13,02,13.90
2014,10,12,13,03,13.90
2014,10,12,13,04,13.90
2014,10,12,13,05,13.80
2014,10,12,13,06,13.80
2014,10,12,13,07,13.80
2014,10,12,13,08,13.80
2014,10,12,13,09,13.80
2014,10,12,13,10,13.80
2014,10,12,13,11,13.80
2014,10,12,13,12,13.70
2014,10,12,13,13,13.70
2014,10,12,13,14,13.70
2014,10,12,13,15,13.70
2014,10,12,13,16,13.70
2014,10,12,13,17,13.70
2014,10,12,13,18,13.70
2014,10,12,13,19,13.60
2014,10,12,13,20,13.60
2014,10,12,13,21,13.60
2014,10,12,13,22,13.60
2014,10,12,13,23,13.60
2014,10,12,13,24,13.60
2014,10,12,13,25,13.60
2014,10,12,13,26,13.60
2014,10,12,13,27,13.60
2014,10,12,13,28,13.60
2014,10,12,13,29,13.60
2014,10,12,13,30,13.70
2014,10,12,13,31,13.70
2014,10,12,13,32,13.70
2014,10,12,13,33,13.70
2014,10,12,13,34,13.80
2014,10,12,13,35,13.80
2014,10,12,13,36,13.80
2014,10,12,13,37,13.80
2014,10,12,13,38,13.90
2014,10,12,13,39,13.90
2014,10,12,13,40,13.90
2014,10,12,13,41,13.90
2014,10,12,13,42,14.00
2014,10,12,13,43,14.00
2014,10,12,13,44,14.00
2014,10,12,13,45,14.10
2014,10,12,13,46,14.10
2014,10,12,13,47,14.10
2014,10,12,13,48,14.10
2014,10,12,13,49,14.20
2014,10,12,13,50,14.20
2014,10,12,13,51,14.20
2014,10,12,13,52,14.20
2014,10,12,13,53,14.20
2014,10,12,13,54,14.20
2014,10,12,13,55,14.30
2014,10,12,13,56,14.30
2014,10,12,13,57,14.30
2014,10,12,13,58,14.30
2014,10,12,13,59,14.30
2014,10,12,14,00,14.30
2014,10,12,14,01,14.40
2014,10,12,14,02,14.40
2014,10,12,14,03,14.40
2014,10,12,14,04,14.40
2014,10,12,14,05,14.40
2014,10,12,14,06,14.40
2014,10,12,14,07,14.40
2014,10,12,14,08,14.40
2014,10,12,14,09,14.40
2014,10,12,14,10,14.40
2014,10,12,14,11,14.30
2014,10,12,14,12,14.30
2014,10,12,14,13,14.30
2014,10,12,14,14,14.20
2014,10,12,14,15,14.20
2014,10,12,14,16,14.10
2014,10,12,14,17,14.00
2014,10,12,14,18,13.90
2014,10,12,14,19,13.80
2014,10,12,14,20,13.80
2014,10,12,14,21,13.70
2014,10,12,14,22,13.70
2014,10,12,14,23,13.70
2014,10,12,14,24,13.60
2014,10,12,14,25,13.60
2014,10,12,14,26,13.50
2014,10,12,14,27,13.40
2014,10,12,14,28,13.40
2014,10,12,14,29,13.30
2014,10,12,14,30,13.30
2014,10,12,14,31,13.20
2014,10,12,14,32,13.20
2014,10,12,14,33,13.20
2014,10,12,14,34,13.10
2014,10,12,14,35,13.10
2014,10,12,14,36,13.00
2014,10,12,14,37,13.00
2014,10,12,14,38,13.00
2014,10,12,14,39,12.90
2014,10,12,14,40,12.90
2014,10,12,14,41,12.90
2014,10,12,14,42,12.90
2014,10,12,14,43,12.90
2014,10,12,14,44,12.90
2014,10,12,14,45,12.90
2014,10,12,14,46,12.90
2014,10,12,14,47,12.90
2014,10,12,14,48,12.90
2014,10,12,14,49,13.00
2014,10,12,14,50,13.00
2014,10,12,14,51,13.00
2014,10,12,14,52,13.00
2014,10,12,14,53,13.00
2014,10,12,14,54,13.00
2014,10,12,14,55,13.00
2014,10,12,14,56,13.00
2014,10,12,14,57,13.00
2014,10,12,14,58,13.00
2014,10,12,14,59,13.00
2014,10,12,15,00,13.00
2014,10,12,15,01,13.00
2014,10,12,15,02,13.00
2014,10,12,15,03,13.00
2014,10,12,15,04,13.00
2014,10,12,15,05,13.00
2014,10,12,15,06,13.00
2014,10,12,15,07,13.00
2014,10,12,15,08,13.00
2014,10,12,15,09,13.00
2014,10,12,15,10,13.00
2014,10,12,15,11,13.00
2014,10,12,15,12,13.00
2014,10,12,15,13,13.10
2014,10,12,15,14,13.10
2014,10,12,15,15,13.10
2014,10,12,15,16,13.10
2014,10,12,15,17,13.20
2014,10,12,15,18,13.20
2014,10,12,15,19,13.20
2014,10,12,15,20,13.30
2014,10,12,15,21,13.30
2014,10,12,15,22,13.40
2014,10,12,15,23,13.40
2014,10,12,15,24,13.40
2014,10,12,15,25,13.40
2014,10,12,15,26,13.50
2014,10,12,15,27,13.50
2014,10,12,15,28,13.60
2014,10,12,15,29,13.60
2014,10,12,15,30,13.60
2014,10,12,15,31,13.60
2014,10,12,15,32,13.60
2014,10,12,15,33,13.70
2014,10,12,15,34,13.70
2014,10,12,15,35,13.70
2014,10,12,15,36,13.70
2014,10,12,15,37,13.70
2014,10,12,15,38,13.70
2014,10,12,15,39,13.70
2014,10,12,15,40,13.70
2014,10,12,15,41,13.70
2014,10,12,15,42,13.70
2014,10,12,15,43,13.70
2014,10,12,15,44,13.70
2014,10,12,15,45,13.70
2014,10,12,15,46,13.70
2014,10,12,15,47,13.70
2014,10,12,15,48,13.70
2014,10,12,15,49,13.70
2014,10,12,15,50,13.70
2014,10,12,15,51,13.70
2014,10,12,15,52,13.70
2014,10,12,15,53,13.70
2014,10,12,15,54,13.70
2014,10,12,15,55,13.70
2014,10,12,15,56,13.80
2014,10,12,15,57,13.80
2014,10,12,15,58,13.80
2014,10,12,15,59,13.80
2014,10,12,16,00,13.80
2014,10,12,16,01,13.80
2014,10,12,16,02,13.80
2014,10,12,16,03,13.90
2014,10,12,16,04,13.90
2014,10,12,16,05,13.80
2014,10,12,16,06,13.80
2014,10,12,16,07,13.80
2014,10,12,16,08,13.90
2014,10,12,16,09,13.90
2014,10,12,16,10,13.90
2014,10,12,16,11,13.90
2014,10,12,16,12,13.90
2014,10,12,16,13,13.90
2014,10,12,16,14,13.90
2014,10,12,16,15,13.90
2014,10,12,16,16,14.00
2014,10,12,16,17,14.00
2014,10,12,16,18,14.00
2014,10,12,16,19,14.00
2014,10,12,16,20,14.00
2014,10,12,16,21,13.90
2014,10,12,16,22,14.00
2014,10,12,16,23,14.00
2014,10,12,16,24,13.90
2014,10,12,16,25,13.90
2014,10,12,16,26,13.90
2014,10,12,16,27,13.80
2014,10,12,16,28,13.80
2014,10,12,16,29,13.80
2014,10,12,16,30,13.80
2014,10,12,16,31,13.80
2014,10,12,16,32,13.80
2014,10,12,16,33,13.80
2014,10,12,16,34,13.80
2014,10,12,16,35,13.80
2014,10,12,16,36,13.80
2014,10,12,16,37,13.80
2014,10,12,16,38,13.80
2014,10,12,16,39,13.80
2014,10,12,16,40,13.80
2014,10,12,16,41,13.80
2014,10,12,16,42,13.80
2014,10,12,16,43,13.80
2014,10,12,16,44,13.80
2014,10,12,16,45,13.80
2014,10,12,16,46,13.80
2014,10,12,16,47,13.80
2014,10,12,16,48,13.80
2014,10,12,16,49,13.80
2014,10,12,16,50,13.70
2014,10,12,16,51,13.70
2014,10,12,16,52,13.70
2014,10,12,16,53,13.70
2014,10,12,16,54,13.70
2014,10,12,16,55,13.70
2014,10,12,16,56,13.70
2014,10,12,16,57,13.70
2014,10,12,16,58,13.70
2014,10,12,16,59,13.70
2014,10,12,17,00,13.70
2014,10,12,17,01,13.70
2014,10,12,17,02,13.70
2014,10,12,17,03,13.70
2014,10,12,17,04,13.70
2014,10,12,17,05,13.70
2014,10,12,17,06,13.70
2014,10,12,17,07,13.70
2014,10,12,17,08,13.70
2014,10,12,17,09,13.70
2014,10,12,17,10,13.70
2014,10,12,17,11,13.70
2014,10,12,17,12,13.70
2014,10,12,17,13,13.60
2014,10,12,17,14,13.60
2014,10,12,17,15,13.60
2014,10,12,17,16,13.60
2014,10,12,17,17,13.60
2014,10,12,17,18,13.60
2014,10,12,17,19,13.60
2014,10,12,17,20,13.60
2014,10,12,17,21,13.70
2014,10,12,17,22,13.70
2014,10,12,17,23,13.60
2014,10,12,17,24,13.60
2014,10,12,17,25,13.60
2014,10,12,17,26,13.60
2014,10,12,17,27,13.60
2014,10,12,17,28,13.60
2014,10,12,17,29,13.60
2014,10,12,17,30,13.60
2014,10,12,17,31,13.60